Weather History for KTIF - October, 2012

Change the Weather History Date:

Saturday, October 27, 2012

  Actual Average (KLBF) Record (KLBF)
Temperature  
Mean Temperature 36 °F 45 °F  
Max Temperature 46 °F 60 °F 85 °F (1983)
Min Temperature 25 °F 29 °F 11 °F (1925)
Degree Days  
Heating Degree Days 30 20  
Month to date heating degree days 412  
Since 1 July heating degree days 583  
Cooling Degree Days 0 0  
Month to date cooling degree days 0  
Year to date cooling degree days 765  
Moisture  
Dew Point 26 °F    
Average Humidity 77    
Maximum Humidity 92    
Minimum Humidity 52    
Precipitation  
Precipitation 0.00 in 0.04 in 1.14 in (1881)
Month to date precipitation 1.40  
Year to date precipitation 19.03  
Snow  
Snow 0.00 in 0.10 in 1.00 in (1976)
Month to date snowfall 1.7  
Since 1 July snowfall 1.9  
Since 1 September snowfall 1.9  
Snow Depth -    
Sea Level Pressure  
Sea Level Pressure 30.17 in    
Wind  
Wind Speed 10 mph (SSW)    
Max Wind Speed 24 mph    
Max Gust Speed 29 mph    
Visibility 10 miles    
Events      
T = Trace of Precipitation, MM = Missing Value Source: NWS Daily Summary

Daily Weather History Graph

Daily Weather History Graph

Search for Another Location

Airport or City:

Trip Planner

Search our weather history database for the weather conditions in past years. The results will help you decide how hot, cold, wet, or windy it might be!

Date:

Astronomy

Oct. 27, 2012 Rise Set
Actual Time 8:09 AM CDT 6:42 PM CDT
Civil Twilight 7:40 AM CDT 7:10 PM CDT
Nautical Twilight 7:07 AM CDT 7:43 PM CDT
Astronomical Twilight 6:35 AM CDT 8:15 PM CDT
Moon 5:30 PM CDT (10/27) 6:04 AM CDT (10/27)
Length of Visible Light 11h 30m
Length of Day
10h 32m
Waxing Gibbous, 96% of the Moon is Illuminated
Oct 27
Waxing Gibbous
Oct 29
Full
Nov 6
Last Quarter
Nov 13
New
Nov 20
First Quarter

Hourly Weather History & Observations

Time (CDT) Temp. Windchill Dew Point Humidity Pressure Visibility Wind Dir Wind Speed Gust Speed Precip Events Conditions
12:15 AM 27.0 °F 19.5 °F 23.0 °F 85% 30.28 in 10.0 mi SSW 6.9 mph - N/A   Clear
12:35 AM 26.6 °F 18.2 °F 23.0 °F 86% 30.29 in 10.0 mi SSW 8.1 mph - N/A   Clear
12:55 AM 26.4 °F 18.0 °F 23.0 °F 87% 30.28 in 10.0 mi SSW 8.1 mph - N/A   Clear
1:15 AM 25.9 °F 17.4 °F 22.6 °F 88% 30.28 in 10.0 mi SSW 8.1 mph - N/A   Clear
1:35 AM 26.2 °F 17.8 °F 22.8 °F 87% 30.28 in 10.0 mi SSW 8.1 mph - N/A   Clear
1:55 AM 26.1 °F 18.4 °F 23.0 °F 88% 30.27 in 10.0 mi SSW 6.9 mph - N/A   Clear
2:15 AM 25.9 °F 18.2 °F 23.0 °F 89% 30.26 in 10.0 mi SSW 6.9 mph - N/A   Clear
2:35 AM 25.0 °F 18.1 °F 22.1 °F 89% 30.26 in 10.0 mi South 5.8 mph - N/A   Clear
2:55 AM 25.5 °F 16.9 °F 22.6 °F 89% 30.25 in 10.0 mi South 8.1 mph - N/A   Clear
3:35 AM 26.1 °F 17.6 °F 22.8 °F 88% 30.25 in 10.0 mi SSW 8.1 mph - N/A   Clear
3:55 AM 26.1 °F 17.6 °F 22.8 °F 88% 30.24 in 10.0 mi South 8.1 mph - N/A   Clear
4:15 AM 25.7 °F 17.1 °F 22.6 °F 88% 30.23 in 10.0 mi South 8.1 mph - N/A   Clear
4:35 AM 25.7 °F 17.1 °F 22.8 °F 89% 30.23 in 10.0 mi South 8.1 mph - N/A   Clear
4:55 AM 25.9 °F 17.4 °F 23.0 °F 89% 30.22 in 10.0 mi South 8.1 mph - N/A   Scattered Clouds
5:15 AM 25.5 °F 16.9 °F 22.8 °F 89% 30.22 in 10.0 mi South 8.1 mph - N/A   Scattered Clouds
5:35 AM 26.6 °F 17.5 °F 23.4 °F 88% 30.22 in 10.0 mi South 9.2 mph - N/A   Scattered Clouds
5:55 AM 26.6 °F 16.8 °F 23.4 °F 88% 30.22 in 10.0 mi South 10.4 mph - N/A   Scattered Clouds
6:15 AM 26.6 °F 17.5 °F 23.4 °F 88% 30.21 in 10.0 mi South 9.2 mph - N/A   Scattered Clouds
6:55 AM 27.3 °F 19.1 °F 23.9 °F 87% 30.20 in 10.0 mi South 8.1 mph - N/A   Mostly Cloudy
7:15 AM 27.9 °F 18.4 °F 24.4 °F 87% 30.21 in 10.0 mi South 10.4 mph - N/A   Mostly Cloudy
7:35 AM 27.7 °F 17.6 °F 24.4 °F 88% 30.20 in 10.0 mi South 11.5 mph - N/A   Mostly Cloudy
7:55 AM 28.0 °F 17.0 °F 24.4 °F 86% 30.19 in 10.0 mi South 13.8 mph 18.4 mph N/A   Scattered Clouds
8:15 AM 28.4 °F 15.8 °F 24.6 °F 86% 30.19 in 10.0 mi South 18.4 mph 23.0 mph N/A   Scattered Clouds
8:35 AM 28.9 °F 16.9 °F 24.6 °F 84% 30.19 in 10.0 mi South 17.3 mph 23.0 mph N/A   Scattered Clouds
9:15 AM 29.8 °F 18.0 °F 24.8 °F 81% 30.19 in 10.0 mi South 17.3 mph 25.3 mph N/A   Overcast
9:35 AM 30.0 °F 18.7 °F 25.0 °F 82% 30.19 in 10.0 mi South 16.1 mph - N/A   Mostly Cloudy
9:55 AM 30.2 °F 17.4 °F 25.2 °F 82% 30.19 in 10.0 mi South 20.7 mph 26.5 mph N/A   Overcast
10:35 AM 31.5 °F 19.8 °F 26.4 °F 82% 30.17 in 10.0 mi South 18.4 mph 23.0 mph N/A   Overcast
10:55 AM 32.0 °F 20.8 °F 27.0 °F 82% 30.17 in 10.0 mi South 17.3 mph 23.0 mph N/A   Overcast
11:15 AM 32.9 °F 20.1 °F 27.5 °F 81% 30.17 in 10.0 mi SSW 24.2 mph - N/A   Overcast
11:35 AM 33.1 °F 23.4 °F 27.7 °F 81% 30.16 in 10.0 mi SSW 13.8 mph 26.5 mph N/A   Overcast
11:55 AM 34.2 °F 24.0 °F 28.0 °F 78% 30.15 in 10.0 mi South 16.1 mph - N/A   Overcast
12:15 PM 35.8 °F 24.8 °F 28.6 °F 75% 30.14 in 10.0 mi SSW 20.7 mph 26.5 mph N/A   Mostly Cloudy
12:35 PM 37.2 °F 26.7 °F 28.9 °F 72% 30.14 in 10.0 mi SSW 20.7 mph 28.8 mph N/A   Mostly Cloudy
12:55 PM 38.7 °F 29.5 °F 29.5 °F 70% 30.14 in 10.0 mi SSW 17.3 mph 25.3 mph N/A   Overcast
1:15 PM 38.5 °F 29.9 °F 29.3 °F 70% 30.13 in 10.0 mi SSW 15.0 mph 21.9 mph N/A   Overcast
1:35 PM 39.2 °F 30.8 °F 29.7 °F 69% 30.12 in 10.0 mi SW 15.0 mph - N/A   Overcast
1:55 PM 41.5 °F 33.5 °F 30.4 °F 65% 30.11 in 10.0 mi SSW 16.1 mph 21.9 mph N/A   Overcast
2:15 PM 42.3 °F 34.4 °F 30.6 °F 63% 30.10 in 10.0 mi SSW 16.1 mph - N/A   Scattered Clouds
2:35 PM 43.9 °F 36.5 °F 30.7 °F 60% 30.10 in 10.0 mi SW 16.1 mph 23.0 mph N/A   Clear
2:55 PM 44.8 °F 37.7 °F 30.6 °F 57% 30.10 in 10.0 mi SSW 16.1 mph - N/A   Scattered Clouds
3:15 PM 46.0 °F 39.9 °F 30.7 °F 55% 30.09 in 10.0 mi SW 13.8 mph 17.3 mph N/A   Scattered Clouds
3:35 PM 45.1 °F 39.5 °F 30.2 °F 56% 30.09 in 10.0 mi SW 11.5 mph - N/A   Scattered Clouds
3:55 PM 46.2 °F 41.7 °F 30.2 °F 54% 30.09 in 10.0 mi SW 9.2 mph - N/A   Scattered Clouds
4:15 PM 45.9 °F 39.7 °F 30.0 °F 54% 30.09 in 10.0 mi SW 13.8 mph 17.3 mph N/A   Scattered Clouds
4:35 PM 45.9 °F 40.8 °F 30.2 °F 54% 30.09 in 10.0 mi SSW 10.4 mph 17.3 mph N/A   Scattered Clouds
4:55 PM 45.9 °F 41.2 °F 30.0 °F 54% 30.09 in 10.0 mi SW 9.2 mph - N/A   Clear
5:15 PM 46.0 °F 41.4 °F 30.0 °F 54% 30.09 in 10.0 mi WSW 9.2 mph 16.1 mph N/A   Clear
5:35 PM 45.7 °F 42.0 °F 29.1 °F 52% 30.09 in 10.0 mi WSW 6.9 mph - N/A   Clear
5:55 PM 45.3 °F 41.6 °F 29.1 °F 53% 30.10 in 10.0 mi WSW 6.9 mph - N/A   Clear
6:15 PM 44.1 °F 40.8 °F 29.3 °F 56% 30.10 in 10.0 mi SW 5.8 mph - N/A   Clear
6:35 PM 42.1 °F 40.2 °F 29.3 °F 61% 30.10 in 10.0 mi SW 3.5 mph - N/A   Clear
6:55 PM 38.7 °F 35.2 °F 28.8 °F 68% 30.11 in 10.0 mi SSW 4.6 mph - N/A   Clear
7:15 PM 37.2 °F 32.6 °F 28.4 °F 70% 30.12 in 10.0 mi SSW 5.8 mph - N/A   Clear
7:35 PM 36.1 °F 31.4 °F 28.8 °F 75% 30.13 in 10.0 mi SSW 5.8 mph - N/A   Clear
7:55 PM 35.6 °F 29.9 °F 28.9 °F 77% 30.13 in 10.0 mi SSW 6.9 mph - N/A   Clear
8:15 PM 35.1 °F 29.3 °F 28.9 °F 78% 30.14 in 10.0 mi SSW 6.9 mph - N/A   Clear
8:35 PM 32.0 °F - 27.3 °F 83% 30.14 in 10.0 mi Calm Calm - N/A   Clear
8:55 PM 31.3 °F 26.6 °F 26.8 °F 83% 30.14 in 10.0 mi West 4.6 mph - N/A   Clear
9:15 PM 31.8 °F - 27.0 °F 82% 30.14 in 10.0 mi Calm Calm - N/A   Clear
9:35 PM 31.6 °F - 27.9 °F 86% 30.15 in 10.0 mi Calm Calm - N/A   Clear
9:55 PM 30.6 °F 27.1 °F 26.4 °F 85% 30.15 in 10.0 mi SW 3.5 mph - N/A   Clear
10:35 PM 29.1 °F - 26.2 °F 89% 30.15 in 10.0 mi Calm Calm - N/A   Clear
11:15 PM 28.6 °F - 26.1 °F 90% 30.16 in 10.0 mi Calm Calm - N/A   Clear
11:35 PM 27.3 °F - 25.2 °F 92% 30.16 in 10.0 mi Calm Calm - N/A   Clear
11:55 PM 27.5 °F - 24.8 °F 90% 30.16 in 10.0 mi Calm Calm - N/A   Clear